DateTimeUTC,F1_A11,F1_S11,BsB_S11,BsG_S11,BsR_S11,BbsB_S11,BbsG_S11,BbsR_S11,BaB_A11,BaG_A11,BaR_A11,Tu_S11,T_S11,Uu_S11,U_S11,P_S11,T1_A11
2021-04-23T11:00:00Z,00000200,20000000,,,,,,,0000.03,-000.20,0000.03,18.2,25.3,01.5,01.0,0673.3,31.1
2021-04-23T11:01:00Z,00000200,20000000,,,,,,,-000.12,-000.18,0000.16,18.2,25.3,01.5,01.0,0673.3,31.1
2021-04-23T11:02:00Z,00000200,20000000,,,,,,,0000.43,0000.25,0000.08,18.2,25.3,01.5,01.0,0673.3,31.1
2021-04-23T11:03:00Z,00000200,60000000,,,,,,,0000.35,0000.53,0000.47,18.2,25.3,01.5,01.0,0673.3,31.1
2021-04-23T11:04:00Z,00000200,41000000,0001.78,0001.76,0000.90,0000.42,0000.19,0000.24,0000.79,0000.42,0000.32,18.3,25.2,01.5,01.0,0674.2,31.1
2021-04-23T11:05:00Z,00000200,01000000,0002.69,0001.53,0000.91,0001.13,0000.47,0000.18,0000.46,0000.75,0000.54,18.4,25.2,01.5,01.0,0674.3,31.2
2021-04-23T11:06:00Z,00000200,01000000,0002.44,0002.17,0000.78,0000.37,0000.25,0000.17,0001.13,0000.81,0000.71,18.4,25.2,01.4,01.0,0674.3,31.2
2021-04-23T11:07:00Z,00000200,01000000,0002.81,0001.87,0001.49,0000.40,0000.07,0000.28,0000.98,0001.09,0000.36,18.4,25.2,01.4,00.9,0674.3,31.1
2021-04-23T11:08:00Z,00000200,01000000,0002.80,0001.94,0001.10,0000.55,0000.34,0000.00,0001.11,0000.53,0000.81,18.4,25.2,01.4,00.9,0674.3,31.1
2021-04-23T11:09:00Z,00000200,01000000,0002.84,0001.62,0001.11,0000.63,0000.19,0000.16,0000.90,0000.99,0000.46,18.4,25.2,01.4,00.9,0674.3,31.1
2021-04-23T11:10:00Z,00000200,01000000,0002.98,0001.76,0001.17,0000.25,0000.17,0000.30,0000.75,0001.08,0000.77,18.4,25.2,01.5,01.0,0674.3,31.1
2021-04-23T11:11:00Z,00000200,01000000,0001.97,0001.80,0001.37,-000.04,0000.16,0000.31,0001.12,0000.93,0000.97,18.4,25.2,01.5,01.0,0674.3,31.2
2021-04-23T11:12:00Z,00000200,01000000,0002.48,0002.05,0001.28,0000.80,0000.22,0000.17,0001.11,0000.91,0000.75,18.5,25.2,01.6,01.0,0674.4,31.1
2021-04-23T11:13:00Z,00000200,01000000,0002.20,0001.96,0001.03,0000.66,0000.36,0000.30,0000.89,0000.55,0000.34,18.5,25.2,01.6,01.1,0674.4,31.1
2021-04-23T11:14:00Z,00000200,01000000,0002.71,0001.89,0001.10,0000.50,0000.37,0000.22,0000.87,0000.79,0000.34,18.5,25.2,01.4,00.9,0674.4,31.1
2021-04-23T11:15:00Z,00000200,01000000,0002.22,0001.56,0001.25,0000.38,0000.23,0000.18,0000.78,0000.94,0000.90,18.5,25.2,01.4,00.9,0674.4,31.1
2021-04-23T11:16:00Z,00000200,01000000,0002.29,0001.68,0001.35,0000.54,0000.32,0000.06,0001.12,0000.91,0000.72,18.5,25.2,01.5,01.0,0674.4,31.2
2021-04-23T11:17:00Z,00000200,01000000,0002.86,0001.74,0001.22,0000.91,0000.17,0000.29,0001.05,0000.74,0000.62,18.5,25.2,01.4,00.9,0674.4,31.1
2021-04-23T11:18:00Z,00000200,01000000,0002.81,0001.78,0001.20,-000.16,0000.34,0000.19,0001.06,0001.08,0000.92,18.5,25.2,01.4,00.9,0674.4,31.2
2021-04-23T11:19:00Z,00000200,01000000,0002.74,0001.92,0001.17,0000.51,0000.29,0000.39,0000.97,0001.14,0000.95,18.5,25.2,01.5,01.0,0674.4,31.1
2021-04-23T11:20:00Z,00000200,01000000,0002.88,0001.98,0001.39,0000.50,0000.19,0000.26,0000.91,0000.81,0000.20,18.5,25.3,01.5,01.0,0674.4,31.1
2021-04-23T11:21:00Z,00000200,01000000,0002.05,0002.22,0001.19,0000.01,0000.39,0000.25,0000.95,0000.90,0000.81,18.5,25.3,01.5,01.0,0674.4,31.1
2021-04-23T11:22:00Z,00000200,01000000,0002.49,0002.16,0001.10,0000.57,0000.18,0000.13,0000.79,0000.78,0000.65,18.6,25.3,01.5,01.0,0674.4,31.2
2021-04-23T11:23:00Z,00000200,01000000,0002.60,0001.57,0001.00,0000.11,0000.25,0000.31,0001.22,0001.16,0000.84,18.6,25.3,01.5,01.0,0674.4,31.2
2021-04-23T11:24:00Z,00000200,01000000,0002.39,0001.67,0001.08,0000.74,0000.28,0000.15,0000.92,0000.97,0000.57,18.6,25.3,01.5,01.0,0674.5,31.2
2021-04-23T11:25:00Z,00000200,01000000,0002.26,0001.81,0001.42,0000.27,0000.20,0000.35,0001.35,0000.63,0000.70,18.6,25.3,01.5,01.0,0674.5,31.2
2021-04-23T11:26:00Z,00000200,01000000,0002.70,0001.94,0001.10,0000.16,0000.27,0000.09,0000.58,0000.54,0000.53,18.6,25.3,01.4,00.9,0674.5,31.2
2021-04-23T11:27:00Z,00000200,01000000,0002.81,0001.82,0001.30,0000.49,0000.57,0000.16,0001.07,0001.16,0000.71,18.6,25.3,01.5,01.0,0674.5,31.1
2021-04-23T11:28:00Z,00000200,01000000,0002.63,0001.81,0001.15,0000.62,0000.29,0000.40,0000.75,0000.72,0000.55,18.6,25.3,01.4,01.0,0674.5,31.2
2021-04-23T11:29:00Z,00000200,01000000,0002.36,0002.25,0001.12,0000.55,0000.34,-000.03,0001.12,0001.03,0000.77,18.6,25.3,01.4,00.9,0674.5,31.2
2021-04-23T11:30:00Z,00000200,01000000,0002.74,0001.91,0001.09,0000.67,0000.06,0000.13,0000.82,0000.99,0000.58,18.6,25.3,01.5,01.0,0674.6,31.2
2021-04-23T11:31:00Z,00000200,01000000,0002.70,0002.01,0001.05,0000.75,0000.44,0000.06,0001.22,0000.84,0000.67,18.7,25.3,01.5,01.0,0674.6,31.2
2021-04-23T11:32:00Z,00000200,01000000,0003.30,0001.73,0001.09,0000.59,0000.14,0000.30,0001.07,0001.02,0001.00,18.7,25.3,01.4,01.0,0674.6,31.2
2021-04-23T11:33:00Z,00000200,01000000,0002.30,0001.66,0001.19,0000.79,0000.24,0000.28,0001.02,0000.88,0000.40,18.7,25.3,01.4,01.0,0674.6,31.2
2021-04-23T11:34:00Z,00000200,01000000,0003.14,0001.98,0000.73,0000.64,0000.34,0000.24,0000.94,0000.76,0000.59,18.7,25.4,01.3,00.9,0674.6,31.2
2021-04-23T11:35:00Z,00000200,01000000,0003.06,0002.09,0001.34,0000.65,0000.20,0000.12,0000.87,0000.94,0000.59,18.7,25.4,01.3,00.9,0674.6,31.2
2021-04-23T11:36:00Z,00000200,01000000,0002.38,0001.99,0001.26,0000.20,0000.14,0000.41,0000.83,0001.11,0000.87,18.7,25.4,01.4,00.9,0674.6,31.2
2021-04-23T11:37:00Z,00000200,01000000,0002.52,0001.69,0001.22,0000.74,0000.26,0000.46,0001.42,0000.62,0000.82,18.7,25.4,01.3,00.9,0674.6,31.2
2021-04-23T11:38:00Z,00000200,01000000,0002.24,0002.26,0000.89,-000.20,0000.16,0000.12,0000.56,0000.87,0000.29,18.7,25.4,01.2,00.8,0674.6,31.2
2021-04-23T11:39:00Z,00000200,01000000,0003.28,0001.97,0000.89,-000.02,0000.29,0000.33,0001.34,0001.35,0001.42,18.7,25.4,01.3,00.9,0674.6,31.2
2021-04-23T11:40:00Z,00000200,01000000,0002.96,0001.70,0000.86,0000.86,0000.40,0000.29,0001.24,0000.99,0000.61,18.7,25.4,01.3,00.9,0674.6,31.2
2021-04-23T11:41:00Z,00000200,01000000,0002.91,0002.00,0001.42,0001.00,0000.33,0000.25,0000.77,0000.70,0000.10,18.7,25.4,01.4,00.9,0674.6,31.2
2021-04-23T11:42:00Z,00000200,01000000,0003.00,0002.12,0001.02,0000.43,0000.27,0000.24,0001.34,0001.16,0001.25,18.8,25.4,01.4,00.9,0674.6,31.2
2021-04-23T11:43:00Z,00000200,01000000,0002.64,0002.22,0001.58,0000.93,0000.28,0000.50,0001.35,0000.96,0000.71,18.8,25.4,01.4,00.9,0674.6,31.2
2021-04-23T11:44:00Z,00000200,01000000,0003.54,0001.96,0000.78,0000.96,0000.31,0000.27,0001.01,0000.81,0000.88,18.8,25.5,01.5,01.0,0674.6,31.2
2021-04-23T11:45:00Z,00000200,01000000,0003.04,0002.05,0001.15,0001.24,0000.35,0000.47,0001.42,0001.23,0000.79,18.8,25.5,01.5,01.0,0674.6,31.2
2021-04-23T11:46:00Z,00000200,01000000,0003.02,0001.81,0001.10,0000.40,0000.51,0000.40,0001.05,0001.11,0000.84,18.8,25.5,01.5,01.0,0674.6,31.2
2021-04-23T11:47:00Z,00000200,01000000,0002.80,0002.11,0001.14,0000.35,0000.23,-000.19,0001.13,0001.17,0001.13,18.8,25.5,01.6,01.1,0674.6,31.2
2021-04-23T11:48:00Z,00000200,01000000,0002.61,0002.02,0001.11,0000.54,0000.24,0000.39,0001.02,0001.31,0000.44,18.8,25.5,01.6,01.1,0674.6,31.2
2021-04-23T11:49:00Z,00000200,01000000,0003.48,0002.06,0001.21,0000.59,0000.07,0000.27,0000.98,0000.63,0000.86,18.8,25.5,01.7,01.1,0674.6,31.2
2021-04-23T11:50:00Z,00000200,01000000,0003.07,0001.97,0001.39,0000.36,0000.54,0000.26,0001.25,0001.04,0000.75,18.8,25.5,01.7,01.1,0674.6,31.2
2021-04-23T11:51:00Z,00000200,01000000,0002.88,0001.83,0001.28,0000.59,0000.06,0000.04,0001.06,0001.04,0000.68,18.9,25.5,01.8,01.2,0674.6,31.2
2021-04-23T11:52:00Z,00000200,01000000,0001.92,0001.96,0001.44,0000.42,0000.27,0000.08,0001.02,0000.94,0001.04,18.9,25.5,01.7,01.2,0674.6,31.2
2021-04-23T11:53:00Z,00000200,01000000,0003.07,0002.11,0001.10,0000.37,0000.21,0000.34,0001.38,0000.85,0000.61,18.9,25.5,01.8,01.2,0674.6,31.2
2021-04-23T11:54:00Z,00000200,01000000,0002.95,0001.64,0001.10,0000.57,0000.17,0000.21,0001.29,0001.35,0000.63,18.9,25.6,01.8,01.2,0674.6,31.2
2021-04-23T11:55:00Z,00000200,01000000,0002.41,0002.12,0001.05,0000.81,0000.11,0000.41,0000.71,0000.74,0000.57,18.9,25.6,01.9,01.2,0674.6,31.2
2021-04-23T11:56:00Z,00000200,01000000,0002.54,0001.98,0001.30,0000.87,0000.29,0000.33,0001.44,0001.03,0000.88,18.9,25.6,01.9,01.3,0674.6,31.2
2021-04-23T11:57:00Z,00000200,40000000,,,,,,,-000.11,0000.21,0000.36,19.0,25.6,01.9,01.3,0674.7,31.2
2021-04-23T11:58:00Z,00000200,60000000,,,,,,,0000.14,-000.24,-000.10,18.8,25.7,01.7,01.1,0673.7,31.2
2021-04-23T11:59:00Z,00000200,20000000,,,,,,,-000.20,0000.28,0000.08,18.8,25.8,01.7,01.1,0673.7,31.2
